Temp
13 12 12 12 12 12 11 11 11 11 11 11 10 10 10 9 9 9 8 8 8 8
12 12 12 11 11 11 10 10 10 10 10 10 10 10 9 9 9 8 8 8 8 7
12 11 11 11 11 10 10 10 10 9 9 9 9 9 9 9 9 8 8 8 7 7
11 11 10 10 10 9 9 9 9 9 9 9 9 9 9 9 8 8 8 7 7 7
10 10 10 10 9 9 9 9 8 8 8 8 8 8 8 8 8 8 7 7 7 7
10 9 9 9 9 8 8 8 8 8 8 8 8 7 7 7 7 7 7 7 7 7
9 9 9 8 8 8 8 8 8 7 7 7 7 7 7 7 6 6 6 6 6 6
9 8 8 8 8 8 7 7 7 6 6 6 6 6 6 6 6 5 5 5 5 5
8 8 8 7 7 7 7 6 6 6 6 6 5 5 5 5 5 4 4 4 4 4
8 7 7 7 6 6 6 6 6 5 5 5 5 5 5 4 4 4 4 3 3 4
7 7 7 7 6 6 5 5 5 5 5 4 5 4 4 4 3 3 4 3 3 3
7 7 6 6 5 5 5 5 4 4 4 4 5 4 4 4 4 3 3 3 3 3
6 6 6 5 5 5 4 4 4 4 4 4 4 5 4 4 3 3 3 2 3 2
6 5 5 5 5 5 5 4 5 4 5 5 4 4 4 4 3 2 2 1 1 1
Height
830 831 831 831 830 829 827 825 824 823 822 821 820 820 820 820 820 819 819 818 819 818
829 829 828 828 827 825 823 822 820 820 818 817 816 816 816 815 815 815 815 814 814 814
827 827 826 824 823 821 820 818 817 816 815 815 814 813 813 812 812 811 810 810 810 809
825 824 823 822 820 819 818 816 815 813 812 811 810 810 809 808 808 807 807 806 806 805
823 822 821 820 819 818 816 815 813 812 810 808 807 806 805 804 803 802 802 801 801 800
821 820 820 819 818 816 815 813 811 809 808 806 806 804 803 801 800 798 798 797 796 795
818 817 817 816 815 813 812 810 808 807 806 805 804 802 800 798 796 795 794 793 791 790
815 814 813 813 812 811 810 809 807 805 804 802 800 798 797 795 793 791 789 788 786 784
813 812 811 810 809 809 808 806 804 802 800 798 797 796 794 792 789 788 786 782 780 778
811 810 809 808 807 805 803 801 800 799 798 795 793 791 789 788 785 783 780 778 775 773
807 807 806 805 803 802 800 799 797 795 793 792 790 788 785 782 780 777 775 773 771 768
804 804 803 802 801 799 797 795 793 791 788 785 783 783 781 779 775 772 769 768 766 765
801 800 798 797 795 795 792 790 788 785 782 781 778 775 775 774 771 768 766 764 761 761
797 796 794 793 791 790 789 786 783 781 778 776 774 771 770 769 767 765 762 759 757 756
Wind_Speed
7 7 8 9 10 13 15 15 14 14 16 16 16 16 15 16 16 15 14 14 14 14
8 8 9 9 11 13 12 13 14 14 15 15 14 16 17 18 19 17 16 16 16 16
8 7 8 10 10 10 12 13 14 13 13 13 14 15 17 19 19 19 18 18 18 18
7 8 7 8 9 11 12 11 12 12 11 12 12 13 15 18 19 20 20 18 19 20
5 6 7 8 9 11 11 11 11 11 11 11 12 12 14 16 18 19 21 21 21 22
5 7 8 9 10 10 11 12 12 12 13 13 13 13 13 15 17 18 20 21 22 23
6 7 8 9 9 10 11 13 13 13 13 14 14 14 15 16 17 17 17 18 19 21
7 8 9 10 11 12 13 13 13 14 15 15 15 15 15 15 16 18 20 21 21 21
9 10 10 11 12 13 14 14 15 16 17 17 16 15 15 16 17 18 20 21 21 19
9 11 11 12 13 15 15 15 16 17 17 17 17 17 16 15 17 19 20 21 21 21
10 11 12 14 15 16 15 16 17 18 18 19 21 19 17 16 19 19 19 20 19 18
9 11 13 15 15 15 15 16 17 18 19 19 21 18 16 17 19 19 22 21 18 17
10 12 13 14 14 15 15 17 18 20 20 19 20 18 18 18 17 22 23 22 19 16
11 12 13 14 15 15 17 18 19 21 22 23 20 21 19 18 19 22 22 22 22 19
Wind_Direction
242 264 272 275 284 295 304 307 308 299 294 290 269 272 278 271 277 278 273 271 267 270
244 254 268 283 296 305 309 310 308 300 291 285 277 269 274 270 272 274 272 271 271 270
243 265 282 294 303 310 314 313 311 309 305 295 282 276 271 272 274 274 274 275 271 271
262 280 291 305 311 315 317 318 318 316 309 302 292 283 274 271 274 273 278 277 275 274
281 291 297 306 310 314 317 321 320 316 311 309 306 296 282 279 277 276 275 278 275 273
288 290 300 306 311 314 315 316 317 316 314 310 304 299 294 290 288 286 283 282 278 277
275 286 296 301 304 309 312 315 319 319 316 315 312 311 308 302 297 293 290 288 284 282
273 285 288 296 303 310 314 317 317 316 317 318 317 316 314 307 300 297 297 295 290 283
276 289 295 304 309 312 315 318 318 319 320 318 316 313 309 303 300 302 304 304 303 299
285 291 300 307 308 311 314 316 317 315 314 311 310 312 311 306 300 305 307 307 307 307
292 293 301 304 307 308 310 309 310 311 313 312 312 314 310 305 303 302 307 310 310 304
280 286 294 296 301 304 304 305 307 309 309 310 310 315 311 307 301 302 308 310 308 303
285 290 291 296 299 300 301 303 307 310 312 313 310 315 311 305 295 302 308 308 308 303
303 301 302 301 301 304 307 309 312 314 317 315 313 311 307 301 295 300 303 305 307 305